Manistique, MI

6:59 PM EDT on October 16, 2017 (GMT -0400)
Schoolcraft County

Weather History for KISQ - November, 2012

Change the Weather History Date:

Saturday, November 24, 2012

  Actual Average Record
Temperature  
Mean Temperature 26 °F -  
Max Temperature 28 °F 35 °F 51 °F (2001)
Min Temperature 23 °F 22 °F -2 °F (1950)
Degree Days  
Heating Degree Days 40    
Moisture  
Dew Point 20 °F    
Average Humidity 78    
Maximum Humidity 93    
Minimum Humidity 69    
Precipitation  
Precipitation 0.00 in - - ()
Sea Level Pressure  
Sea Level Pressure 30.04 in    
Wind  
Wind Speed 9 mph (NW)    
Max Wind Speed 17 mph    
Max Gust Speed 28 mph    
Visibility 9 miles    
Events Snow    
Averages and records for this station are not official NWS values.
T = Trace of Precipitation, MM = Missing Value Source: NWS Daily Summary

Daily Weather History Graph

Daily Weather History Graph

Search for Another Location

Airport or City:

Trip Planner

Search our weather history database for the weather conditions in past years. The results will help you decide how hot, cold, wet, or windy it might be!

Date:

Astronomy

Nov. 24, 2012 Rise Set
Actual Time 7:57 AM EST 5:04 PM EST
Civil Twilight 7:24 AM EST 5:38 PM EST
Nautical Twilight 6:47 AM EST 6:15 PM EST
Astronomical Twilight 6:12 AM EST 6:50 PM EST
Moon 2:57 PM EST (11/24) 4:04 AM EST (11/24)
Length of Visible Light 10h 13m
Length of Day
9h 06m
Waxing Gibbous, 87% of the Moon is Illuminated
Nov 24
Waxing Gibbous
Nov 28
Full
Dec 6
Last Quarter
Dec 13
New
Dec 20
First Quarter

Hourly Weather History & Observations

Time (EST) Temp. Windchill Dew Point Humidity Pressure Visibility Wind Dir Wind Speed Gust Speed Precip Events Conditions
12:15 AM 26.6 °F 17.5 °F 24.8 °F 93% 29.99 in 1.2 mi NW 9.2 mph 18.4 mph N/A Snow Light Snow
12:34 AM 26.6 °F 15.7 °F 24.8 °F 93% 30.00 in 1.8 mi NW 12.7 mph 18.4 mph N/A Snow Light Snow
12:55 AM 26.6 °F 15.2 °F 24.8 °F 93% 30.00 in 1.2 mi NW 13.8 mph 21.9 mph N/A Snow Light Snow
1:14 AM 26.6 °F 16.8 °F 24.8 °F 93% 30.01 in 4.0 mi NW 10.4 mph - N/A Snow Light Snow
1:34 AM 26.6 °F 15.7 °F 24.8 °F 93% 30.01 in 1.2 mi NW 12.7 mph 18.4 mph N/A Snow Light Snow
1:55 AM 26.6 °F 14.7 °F 23.0 °F 86% 30.01 in 1.5 mi NW 15.0 mph 18.4 mph N/A Snow Light Snow
2:14 AM 26.6 °F 16.8 °F 23.0 °F 86% 30.02 in 2.5 mi WNW 10.4 mph - N/A Snow Light Snow
2:35 AM 26.6 °F 15.7 °F 23.0 °F 86% 30.03 in 2.0 mi NW 12.7 mph 16.1 mph N/A Snow Light Snow
2:55 AM 26.6 °F 16.8 °F 21.2 °F 80% 30.03 in 4.0 mi NNW 10.4 mph 15.0 mph N/A Snow Light Snow
3:14 AM 24.8 °F 13.4 °F 21.2 °F 86% 30.03 in 10.0 mi WNW 12.7 mph - N/A Snow Light Snow
3:35 AM 24.8 °F 11.5 °F 19.4 °F 80% 30.03 in 10.0 mi NW 17.3 mph 27.6 mph N/A Snow Light Snow
3:54 AM 24.8 °F 14.0 °F 19.4 °F 80% 30.04 in 10.0 mi NW 11.5 mph 18.4 mph N/A Snow Light Snow
4:14 AM 24.8 °F 13.4 °F 19.4 °F 80% 30.04 in 10.0 mi NW 12.7 mph 19.6 mph N/A Snow Light Snow
4:35 AM 26.6 °F 14.7 °F 21.2 °F 80% 30.04 in 10.0 mi NW 15.0 mph 20.7 mph N/A Snow Light Snow
4:54 AM 26.6 °F 15.2 °F 21.2 °F 80% 30.04 in 4.0 mi NW 13.8 mph 21.9 mph N/A Snow Light Snow
5:15 AM 26.6 °F 16.8 °F 21.2 °F 80% 30.05 in 10.0 mi NW 10.4 mph - N/A Snow Light Snow
5:35 AM 26.6 °F 16.2 °F 21.2 °F 80% 30.05 in 10.0 mi NW 11.5 mph 18.4 mph N/A Snow Light Snow
5:54 AM 26.6 °F 15.2 °F 19.4 °F 74% 30.05 in 10.0 mi NW 13.8 mph 24.2 mph N/A Snow Light Snow
6:15 AM 26.6 °F 16.2 °F 19.4 °F 74% 30.06 in 7.0 mi NW 11.5 mph 18.4 mph N/A Snow Light Snow
6:34 AM 26.6 °F 16.2 °F 19.4 °F 74% 30.07 in 10.0 mi NW 11.5 mph - N/A Snow Light Snow
6:54 AM 26.6 °F 15.7 °F 21.2 °F 80% 30.07 in 10.0 mi NW 12.7 mph 19.6 mph N/A Snow Light Snow
7:15 AM 24.8 °F 14.0 °F 21.2 °F 86% 30.08 in 10.0 mi NNW 11.5 mph 17.3 mph N/A Snow Light Snow
7:34 AM 26.6 °F 15.2 °F 19.4 °F 74% 30.08 in 10.0 mi NNW 13.8 mph 20.7 mph N/A Snow Light Snow
7:55 AM 26.6 °F 16.8 °F 19.4 °F 74% 30.09 in 10.0 mi NW 10.4 mph - N/A   Overcast
8:14 AM 26.6 °F 18.2 °F 19.4 °F 74% 30.09 in 10.0 mi NW 8.1 mph - N/A Snow Light Snow
8:34 AM 26.6 °F 18.2 °F 19.4 °F 74% 30.09 in 10.0 mi NW 8.1 mph - N/A Snow Light Snow
8:55 AM 26.6 °F 20.0 °F 19.4 °F 74% 30.10 in 10.0 mi NW 5.8 mph - N/A Snow Light Snow
9:14 AM 26.6 °F 18.2 °F 19.4 °F 74% 30.10 in 10.0 mi NW 8.1 mph - N/A   Overcast
9:35 AM 26.6 °F 16.8 °F 19.4 °F 74% 30.10 in 10.0 mi NNW 10.4 mph - N/A Snow Light Snow
9:54 AM 26.6 °F 17.5 °F 19.4 °F 74% 30.10 in 10.0 mi NW 9.2 mph - N/A   Overcast
10:15 AM 26.6 °F 18.2 °F 19.4 °F 74% 30.10 in 10.0 mi NW 8.1 mph - N/A Snow Light Snow
10:35 AM 26.6 °F 19.1 °F 19.4 °F 74% 30.10 in 10.0 mi NNW 6.9 mph - N/A Snow Light Snow
10:54 AM 26.6 °F 17.5 °F 19.4 °F 74% 30.10 in 10.0 mi NNW 9.2 mph - N/A Snow Light Snow
11:15 AM 26.6 °F 16.8 °F 19.4 °F 74% 30.10 in 10.0 mi NNW 10.4 mph - N/A   Overcast
11:34 AM 28.4 °F 19.1 °F 19.4 °F 69% 30.09 in 10.0 mi North 10.4 mph - N/A   Mostly Cloudy
11:54 AM 28.4 °F 20.4 °F 19.4 °F 69% 30.09 in 10.0 mi NNW 8.1 mph 16.1 mph N/A   Overcast
12:15 PM 28.4 °F 19.1 °F 19.4 °F 69% 30.09 in 10.0 mi NNW 10.4 mph - N/A   Overcast
12:34 PM 28.4 °F 19.1 °F 19.4 °F 69% 30.08 in 10.0 mi NNW 10.4 mph - N/A Snow Light Snow
12:55 PM 28.4 °F 18.5 °F 19.4 °F 69% 30.08 in 10.0 mi WNW 11.5 mph - N/A Snow Light Snow
1:14 PM 28.4 °F 22.2 °F 19.4 °F 69% 30.07 in 10.0 mi NNW 5.8 mph - N/A   Overcast
1:34 PM 28.4 °F 19.1 °F 19.4 °F 69% 30.07 in 10.0 mi NW 10.4 mph - N/A   Overcast
1:55 PM 28.4 °F 20.4 °F 19.4 °F 69% 30.06 in 10.0 mi North 8.1 mph - N/A   Overcast
2:14 PM 28.4 °F 21.2 °F 19.4 °F 69% 30.06 in 10.0 mi NNW 6.9 mph - N/A   Overcast
2:35 PM 28.4 °F 21.2 °F 19.4 °F 69% 30.06 in 10.0 mi NNW 6.9 mph - N/A   Overcast
2:55 PM 28.4 °F 23.3 °F 19.4 °F 69% 30.05 in 10.0 mi NNW 4.6 mph - N/A Snow Light Snow
3:14 PM 26.6 °F 22.6 °F 21.2 °F 80% 30.05 in 7.0 mi NW 3.5 mph - N/A Snow Light Snow
3:35 PM 26.6 °F - 21.2 °F 80% 30.05 in 7.0 mi Calm Calm - N/A Snow Light Snow
3:54 PM 26.6 °F 19.1 °F 21.2 °F 80% 30.05 in 10.0 mi WNW 6.9 mph - N/A Snow Light Snow
4:15 PM 26.6 °F 18.2 °F 23.0 °F 86% 30.05 in 10.0 mi WNW 8.1 mph - N/A   Overcast
4:35 PM 26.6 °F 19.1 °F 21.2 °F 80% 30.05 in 10.0 mi WNW 6.9 mph - N/A   Overcast
4:54 PM 26.6 °F 18.2 °F 21.2 °F 80% 30.05 in 10.0 mi West 8.1 mph - N/A   Overcast
5:15 PM 26.6 °F 18.2 °F 21.2 °F 80% 30.04 in 10.0 mi WNW 8.1 mph - N/A   Overcast
5:34 PM 26.6 °F 20.0 °F 21.2 °F 80% 30.03 in 10.0 mi West 5.8 mph - N/A   Overcast
5:54 PM 26.6 °F 19.1 °F 21.2 °F 80% 30.03 in 10.0 mi West 6.9 mph - N/A   Overcast
6:15 PM 26.6 °F 19.1 °F 21.2 °F 80% 30.03 in 10.0 mi West 6.9 mph - N/A   Overcast
6:34 PM 26.6 °F 21.2 °F 21.2 °F 80% 30.02 in 10.0 mi West 4.6 mph - N/A   Overcast
6:55 PM 26.6 °F - 21.2 °F 80% 30.01 in 10.0 mi Calm Calm - N/A   Overcast
7:15 PM 26.6 °F 21.2 °F 21.2 °F 80% 30.01 in 10.0 mi WSW 4.6 mph - N/A   Overcast
7:34 PM 26.6 °F 22.6 °F 21.2 °F 80% 30.01 in 10.0 mi WSW 3.5 mph - N/A   Overcast
7:55 PM 26.6 °F 22.6 °F 19.4 °F 74% 30.00 in 10.0 mi West 3.5 mph - N/A   Overcast
8:14 PM 26.6 °F 22.6 °F 19.4 °F 74% 30.00 in 10.0 mi West 3.5 mph - N/A   Overcast
8:35 PM 26.6 °F 21.2 °F 19.4 °F 74% 29.98 in 10.0 mi WSW 4.6 mph - N/A   Overcast
8:55 PM 26.6 °F 21.2 °F 17.6 °F 69% 29.97 in 10.0 mi West 4.6 mph - N/A   Overcast
9:14 PM 24.8 °F 17.9 °F 17.6 °F 74% 29.97 in 10.0 mi West 5.8 mph - N/A   Overcast
9:35 PM 24.8 °F - 17.6 °F 74% 29.96 in 10.0 mi Calm Calm - N/A   Overcast
9:54 PM 24.8 °F - 17.6 °F 74% 29.94 in 10.0 mi Calm Calm - N/A   Mostly Cloudy
10:15 PM 23.0 °F - 17.6 °F 80% 29.93 in 10.0 mi Calm Calm - N/A   Overcast
10:35 PM 23.0 °F - 19.4 °F 86% 29.93 in 10.0 mi Calm Calm - N/A   Overcast
10:54 PM 23.0 °F - 19.4 °F 86% 29.93 in 10.0 mi Calm Calm - N/A   Overcast
11:15 PM 24.8 °F - 19.4 °F 80% 29.93 in 10.0 mi Calm Calm - N/A   Overcast
11:34 PM 24.8 °F - 19.4 °F 80% 29.92 in 7.0 mi Calm Calm - N/A Snow Light Snow
11:55 PM 26.6 °F - 21.2 °F 80% 29.91 in 10.0 mi Calm Calm - N/A Snow Light Snow